Location: Ellerstadt
(49.4644°N, 8.2615°E)
Time: 05:08:40
(UTC+00:00)

Okean-O - Pass Details

Date: 03 March 2021
Orbit: 638 x 640 km, 98.2° (Epoch: 11 April)

Event Time Altitude Azimuth Distance (km) Brightness Sun altitude
Rises 18:22:09 0° 174° (S) 2,934 5.9 -12.0°
Reaches altitude 10° 18:24:23 10° 178° (S) 2,029 5.1 -12.4°
Maximum altitude 18:28:45 59° 259° (WSW) 741 3.3 -13.1°
Drops below altitude 10° 18:33:09 10° 339° (NNW) 2,045 5.6 -13.8°
Sets 18:35:24 0° 343° (NNW) 2,959 6.4 -14.1°
